User: anonymous   Login
Location: Unspecified
(44.0704°N, 88.6889°W)
Time: 17:18:10
(UTC+02:00)
Language:

Vanguard 1 Rocket - Orbit

View from above orbital plane
View from above orbital plane
View from above satellite
View from above satellite

Ground track
Ground track

The orbit data is extracted from the following two-line orbital elements,

1    16U 58002A   19169.15088493 -.00000001 +00000-0 +85964-5 0  9995
2    16 034.2599 129.4490 2026024 137.4781 240.1843 10.48746949420489
Epoch (UTC): 18 June 2019 03:37:16
Eccentricity: 0.2026024
inclination: 34.2599°
perigee height: 652 km
apogee height: 4224 km
right ascension of ascending node: 129.4490°
argument of perigee: 137.4781°
revolutions per day: 10.48746949
mean anomaly at epoch: 240.1843°
orbit number at epoch: 42048

The dashed part of the orbit path shows where the satellite is in the earth's shadow,  

DLR